Welcome to the New NWS' Forecast!
Most changes are behind the scenes, but click here for differences you might notice.

Regional Weather Roundup (RWR)

Issued by Gray - Portland, ME (GYX)

                            
000
ASUS41 KGYX 180210
RWRGYX
WEATHER ROUNDUP FOR MAINE AND NEW HAMPSHIRE
NATIONAL WEATHER SERVICE GRAY ME
1000 PM EDT WED OCT 17 2018

MEZ002-005-006-010-012-015-018-020-021-024-026-027-029-180300-
MAINE
  
CITY           SKY/WX    TMP DP  RH WIND       PRES   REMARKS
PORTLAND       FAIR      42  32  67 W15       29.84R                  
SANFORD        FAIR      40  35  83 W5        29.85R                  
BAR HARBOR     FAIR      41  33  73 W9        29.76R                  
WISCASSET      FAIR      42  29  59 VRB5      29.82R                  
ROCKLAND       FAIR      42  28  57 W7        29.79R                  
FRYEBURG       MOCLDY    42  24  49 NW8       29.84R                  
LEWISTONAUBURN FAIR      42  25  50 NW6       29.83R                  
AUGUSTA        FAIR      40  26  57 NW6       29.80R                  
WATERVILLE     FAIR      39  26  59 VRB6      29.77R                  
BANGOR         FAIR      39  31  72 VRB6      29.75R                  
GREENVILLE       N/A     34  26  72 NW10G21   29.68R                  
MILLINOCKET    FAIR      39  28  64 W8G21     29.71S                  
HOULTON        FAIR      37  32  82 W8        29.63S                  
PRESQUE ISLE   FAIR      33  30  88 W5        29.64R                  
FRENCHVILLE    CLOUDY    36  31  82 NW10      29.59R                  
CARIBOU        FAIR      33  30  88 W5        29.61R                  
$$

NHZ002-005-008-009-011-012-014-180300-
NEW HAMPSHIRE
  
CITY           SKY/WX    TMP DP  RH WIND       PRES   REMARKS
PORTSMOUTH     PTCLDY    43  36  75 SW7       29.86R                  
ROCHESTER      FAIR      40  38  93 VRB3      29.85R                  
NASHUA         MOCLDY    43  36  76 W13       29.91R                  
MANCHESTER     MOCLDY    44  35  70 W5        29.88R                  
CONCORD        FAIR      41  35  79 W7        29.88R                  
LACONIA        MOCLDY    40  34  79 NW9       29.87R                  
PLYMOUTH       MOCLDY    38  34  85 W6        29.87R                  
BERLIN         MOCLDY    38  26  62 NW6       29.80R                  
WHITEFIELD     FAIR      37  27  67 W6        29.83R                  
JAFFREY        FAIR      40  36  86 MISG      29.90R                  
KEENE          MOCLDY    42  32  67 W7        29.93R                  
LEBANON        LGT RAIN  40  32  73 N13       29.90R                  
MT WASHINGTON  SNOW      14  14 100 NW72G84     N/A  VSB 0   WCI -15  
$$

VTZ005-007-008-180300-
VERMONT
  
CITY           SKY/WX    TMP DP  RH WIND       PRES   REMARKS
ST JOHNSBURY     N/A     39  26  59 MISG      29.86R                  
MONTPELIER     CLOUDY    35  29  78 W13       29.92R                  
BURLINGTON     CLOUDY    42  26  53 NW20G25   29.94R                  
$$

MAZ007-012-024-CTZ003-RIZ002-NYZ038-NYZ072-180300-
SOUTHERN NEW ENGLAND AND NY
  
CITY           SKY/WX    TMP DP  RH WIND       PRES   REMARKS
BOSTON         FAIR      50  32  50 W18G28    29.91R                  
WORCESTER      FAIR      40  32  73 W16G24    29.92R                  
NANTUCKET      FAIR      51  36  56 W17G29    29.92R                  
PROVIDENCE     FAIR      47  33  58 NW14G25   29.97R                  
HARTFORD       MOCLDY    46  30  53 NW10      30.01R                  
ALBANY         FAIR      43  31  62 NW15G21   30.03R                  
NEW YORK CITY  FAIR      54  33  45 NW23G33   30.07R                  
$$

ANZ081-ANZ082-ANZ150-NHZ014-MEZ023>029-180300-
COASTAL MARINE OBSERVATIONS
  
STATION/POSITION TIME  TEMP    WIND        PRES    WAVE
                       AIR SEA DIR/SP/G            HT/PER
                 (UTC) (F)     (DEG/KT/KT) (MB)    (FT/S)
MOUNT DESERT ROC 0200   48     290/ 30/ 33 1007.3R
MATINICUS ROCK   0100   49     290/ 26/ 29 1007.4R
ISLE OF SHOALS   0100   47     280/ 22/ 25 1010.0R
JEFFREYS LEDGE   0136      56                N/A     5/ 5
$$

.............KEY..............
   WCI - WIND CHILL
   TC  - TEMPERATURE IN CELSIUS
   VSB - VISIBILITY IN MILES
   HX  - HEAT INDEX
   FAIR- INDICATES FEW OR NO CLOUDS BELOW 12,000 FT, WITH NO 
         SIGNIFICANT WEATHER AND/OR OBSTRUCTIONS TO VISIBILITY.